TimeCET,TemperatureF,Dew PointF,Humidity,Sea Level PressureIn,VisibilityMPH,Wind Direction,Wind SpeedMPH,Gust SpeedMPH,PrecipitationIn,Events,Conditions,WindDirDegrees,DateUTC
12:20 AM,44.6,39.2,81,30.12,5.0,NNE,6.9,-,N/A,,Unknown,30,2013-02-28 23:20:00
12:50 AM,46.4,39.2,76,30.12,5.0,NNE,6.9,-,N/A,,Unknown,30,2013-02-28 23:50:00
1:20 AM,48.2,39.2,71,30.09,5.0,NNE,6.9,-,N/A,,Unknown,30,2013-03-01 00:20:00
1:50 AM,46.4,37.4,71,30.09,5.0,North,5.8,-,N/A,,Unknown,10,2013-03-01 00:50:00
2:20 AM,46.4,37.4,71,30.09,5.0,North,5.8,-,N/A,,Unknown,350,2013-03-01 01:20:00
2:50 AM,44.6,39.2,81,30.09,5.0,NNW,3.5,-,N/A,,Unknown,330,2013-03-01 01:50:00
3:20 AM,44.6,39.2,81,30.09,5.0,NW,5.8,-,N/A,,Unknown,310,2013-03-01 02:20:00
3:50 AM,46.4,39.2,76,30.06,5.0,NNW,5.8,-,N/A,,Unknown,330,2013-03-01 02:50:00
4:20 AM,46.4,39.2,76,30.06,6.2,North,3.5,-,N/A,,Scattered Clouds,350,2013-03-01 03:20:00
4:50 AM,46.4,39.2,76,30.06,6.2,NNW,4.6,-,N/A,,Mostly Cloudy,340,2013-03-01 03:50:00
5:20 AM,46.4,39.2,76,30.06,6.2,NNW,5.8,-,N/A,,Scattered Clouds,340,2013-03-01 04:20:00
5:50 AM,46.4,39.2,76,30.06,6.2,North,4.6,-,N/A,,Scattered Clouds,350,2013-03-01 04:50:00
6:20 AM,46.4,39.2,76,30.06,6.2,NW,3.5,-,N/A,,Scattered Clouds,320,2013-03-01 05:20:00
6:50 AM,46.4,39.2,76,30.04,6.2,North,5.8,-,N/A,,Scattered Clouds,350,2013-03-01 05:50:00
7:20 AM,48.2,39.2,71,30.04,6.2,NNW,4.6,-,N/A,,Scattered Clouds,340,2013-03-01 06:20:00
7:50 AM,48.2,39.2,71,30.06,6.2,NNW,4.6,-,N/A,,Scattered Clouds,330,2013-03-01 06:50:00
8:20 AM,50.0,39.2,66,30.06,6.2,NNW,5.8,-,N/A,,Scattered Clouds,340,2013-03-01 07:20:00
8:50 AM,51.8,39.2,62,30.04,-9999.0,NNE,4.6,-,N/A,,Clear,30,2013-03-01 07:50:00
9:20 AM,53.6,39.2,58,30.04,-9999.0,North,4.6,-,N/A,,Clear,360,2013-03-01 08:20:00
9:50 AM,55.4,41.0,58,30.04,-9999.0,North,5.8,-,N/A,,Clear,10,2013-03-01 08:50:00
10:20 AM,57.2,37.4,48,30.04,-9999.0,NE,8.1,-,N/A,,Clear,40,2013-03-01 09:20:00
10:50 AM,57.2,39.2,51,30.01,-9999.0,NE,10.4,-,N/A,,Clear,50,2013-03-01 09:50:00
11:20 AM,57.2,37.4,48,30.01,-9999.0,NE,8.1,-,N/A,,Clear,50,2013-03-01 10:20:00
11:50 AM,57.2,37.4,48,30.01,-9999.0,NNE,6.9,-,N/A,,Clear,20,2013-03-01 10:50:00
12:20 PM,57.2,41.0,55,30.01,6.2,North,6.9,-,N/A,,Mostly Cloudy,360,2013-03-01 11:20:00
12:50 PM,57.2,41.0,55,29.98,6.2,NNE,9.2,-,N/A,,Mostly Cloudy,30,2013-03-01 11:50:00
1:20 PM,57.2,41.0,55,29.98,6.2,North,5.8,-,N/A,,Mostly Cloudy,360,2013-03-01 12:20:00
1:50 PM,59.0,41.0,51,29.98,6.2,North,4.6,-,N/A,,Mostly Cloudy,10,2013-03-01 12:50:00
2:20 PM,59.0,41.0,51,29.98,6.2,North,4.6,-,N/A,,Mostly Cloudy,10,2013-03-01 13:20:00
2:50 PM,59.0,41.0,51,29.95,6.2,NNE,6.9,-,N/A,,Mostly Cloudy,20,2013-03-01 13:50:00
3:20 PM,59.0,39.2,48,29.95,6.2,ENE,8.1,-,N/A,,Mostly Cloudy,60,2013-03-01 14:20:00
3:50 PM,59.0,39.2,48,29.95,6.2,ENE,8.1,-,N/A,,Mostly Cloudy,60,2013-03-01 14:50:00
4:20 PM,57.2,39.2,51,29.92,6.2,NE,9.2,-,N/A,,Mostly Cloudy,50,2013-03-01 15:20:00
4:50 PM,57.2,42.8,59,29.92,6.2,NE,9.2,-,N/A,,Mostly Cloudy,40,2013-03-01 15:50:00
5:20 PM,57.2,41.0,55,29.89,6.2,NNE,8.1,-,N/A,,Mostly Cloudy,20,2013-03-01 16:20:00
5:50 PM,55.4,41.0,58,29.89,6.2,NNE,8.1,-,N/A,,Scattered Clouds,20,2013-03-01 16:50:00
6:20 PM,55.4,41.0,58,29.89,6.2,North,5.8,-,N/A,,Scattered Clouds,10,2013-03-01 17:20:00
6:50 PM,55.4,41.0,58,29.89,6.2,NNE,5.8,-,N/A,,Scattered Clouds,30,2013-03-01 17:50:00
7:20 PM,55.4,41.0,58,29.86,6.2,NE,8.1,-,N/A,,Scattered Clouds,50,2013-03-01 18:20:00
7:50 PM,53.6,41.0,62,29.86,6.2,NNE,5.8,-,N/A,,Scattered Clouds,30,2013-03-01 18:50:00
8:20 PM,53.6,39.2,58,29.86,-9999.0,NE,6.9,-,N/A,,Clear,50,2013-03-01 19:20:00
8:50 PM,53.6,39.2,58,29.86,-9999.0,NNE,3.5,-,N/A,,Clear,20,2013-03-01 19:50:00
9:20 PM,53.6,39.2,58,29.86,-9999.0,NNE,6.9,-,N/A,,Clear,30,2013-03-01 20:20:00
9:50 PM,51.8,39.2,62,29.86,-9999.0,North,5.8,-,N/A,,Clear,10,2013-03-01 20:50:00
10:20 PM,51.8,41.0,67,29.86,-9999.0,NNW,4.6,-,N/A,,Clear,330,2013-03-01 21:20:00
10:50 PM,51.8,41.0,67,29.86,-9999.0,WNW,5.8,-,N/A,,Clear,300,2013-03-01 21:50:00
11:20 PM,51.8,41.0,67,29.86,-9999.0,NNW,5.8,-,N/A,,Clear,340,2013-03-01 22:20:00
11:50 PM,51.8,41.0,67,29.86,-9999.0,North,5.8,-,N/A,,Clear,10,2013-03-01 22:50:00